Showing default

HAISHAO 1, 62190

Orbit data source: Space-Track

HAISHAO 1, 62190 is a Chinese payload satellite in LEO that was launched on Wed, 04 Dec 2024 UTC via a KUAIZHOU-1A launch vehicle from the Xichang Space Center, China (XSC). Payload-class satellites include a variety of spacecraft equipped with specific instruments for various scientific and technological missions. These include communications satellites like Starlink; space stations such as the ISS; scientific satellites like the Hubble; Earth observation satellites from companies like Planet Labs, Umbra, and HawkEye 360; GPS; miniature CubeSats for education and research; and military/defense satellites.

Loading next visibility...
Identifier
62190, 2024-228A
Orbit
LEO
Country
Flag of CNCN / PRC
Related business
Manufacturer
ZHWK/IMICAS
Mission
Operational Commercial Radar Imaging
Bus & Motor
ZK1, Unknown motor
Mass
400 kg wet, 400 kg dry
Launch date (UTC)
2024-12-04 (2 years ago)
Launch vehicle
KUAIZHOU-1A
Launch site
Xichang Space Center, China (XSC)
Object type
Payload
Rocket body
Debris
Shape & HBR
Box + 3 Pan, 3.0 m
Radar Cross Section
3.533 m², Large (>1 m²)

Expand to show TLE details & history
Last TLE update: 10 hours ago

TLE from 10 hours ago
0 HAISHAO 1
1 62190U 24228A   26171.44302641  .00027152  00000-0  27101-3 0  9998
2 62190  42.9806 345.8541 0005435 303.2956  56.7389 15.65073446 88098
Epoch: 2026-06-20T10:37Z
TLE epoch observation values (Epoch: 2026-06-20T10:37:57.481Z)
Latitude
0.00002°
Longitude
-82.29297°
Altitude
370.786 km
Speed
7.69 km/s
True Right ascension
23h 03m 24s
True Declination
0° 00' 00"
Sunlit
Object was in daylight at epoch
Visualization orbit readout
Latitude
Unknown
Longitude
Unknown
Altitude
Unknown
Speed
Unknown
Apparent Right ascension
Unknown
Apparent Declination
Unknown
Sunlit
N/A
Visualization observer readout
Local Sidereal Time
07:23:52
Azimuth
Unknown
Elevation
Unknown
Doppler factor
Unknown
Orbital elements
Apogee altitude
378.678 km
Perigee altitude
371.337 km
Semi-major axis
6,753.145 km
Eccentricity
0.00054
Inclination
42.9806°
RAAN
345.8541°
Arg. of periapsis
303.2956°
True anomaly
56.791°
Mean anomaly
56.7389°
Eccentric anomaly
56.76495°
Mean motion
3.91097 °/min
Orbital period
92.05 mins
BSTAR
0.00027101
Loading maneuver chart data...
Computing Atmospheric mass density...
Loading historical data...
Loading historical data...
Loading historical data...
Loading historical data...
Loading historical data...
Loading historical data...
Loading historical data...
Other satellites on launch #228 in the year 2024 (2024-12-04 UTC)

Documentation

Showing up to 5 results
|